Location: Newark
(39.6867°N, 100.6772°W)
Time: 06:49:47
(UTC+00:00)

Explorer 11/Cluster Stage 4 - Pass Details

Date: 24 October 2019
Orbit: 467 x 1259 km, 28.8° (Epoch: 12 November)

Event Time Altitude Azimuth Distance (km) Brightness Sun altitude
Rises 14:44:31 0° 233° (SW) 2,648 9.1 17.2°
Reaches altitude 10° 14:47:40 10° 208° (SSW) 1,671 8.4 17.7°
Maximum altitude 14:49:43 14° 174° (S) 1,398 8.6 18.0°
Drops below altitude 10° 14:51:42 10° 141° (SE) 1,612 10.0 18.3°
Sets 14:54:38 0° 114° (ESE) 2,486 10.8 18.8°
